, AK

(GMT )
Cape Romanzoff

Weather History for PACZ - January, 2014

Change the Weather History Date:

Tuesday, January 28, 2014

  Actual Average Record
Temperature  
Mean Temperature 39 °F -  
Max Temperature 40 °F 15 °F 40 °F (2014)
Min Temperature 37 °F 2 °F -17 °F (2012)
Degree Days  
Heating Degree Days 26    
Moisture  
Dew Point 31 °F    
Average Humidity 75    
Maximum Humidity 87    
Minimum Humidity 70    
Precipitation  
Precipitation 0.00 in - - ()
Sea Level Pressure  
Sea Level Pressure 29.58 in    
Wind  
Wind Speed 19 mph (SE)    
Max Wind Speed 25 mph    
Max Gust Speed 34 mph    
Visibility 10 miles    
Events Rain    
Averages and records for this station are not official NWS values.
T = Trace of Precipitation, MM = Missing Value Source: NWS Daily Summary

Daily Weather History Graph

Daily Weather History Graph

Search for Another Location

Airport or City:

Trip Planner

Search our weather history database for the weather conditions in past years. The results will help you decide how hot, cold, wet, or windy it might be!

Date:

Astronomy

Jan. 28, 2014 Rise Set
Actual Time 10:37 AM AKST 5:57 PM AKST
Civil Twilight 9:45 AM AKST 6:49 PM AKST
Nautical Twilight 8:50 AM AKST 7:44 PM AKST
Astronomical Twilight 7:59 AM AKST 8:36 PM AKST
Moon 8:44 AM AKST (1/28) 3:51 PM AKST (1/28)
Length of Visible Light 9h 04m
Length of Day
7h 20m
Waning Crescent, 6% of the Moon is Illuminated
Jan 28
Waning Crescent
Jan 30
New
Feb 6
First Quarter
Feb 14
Full
Feb 22
Last Quarter

Hourly Weather History & Observations

Time (AKST) Temp. Windchill Dew Point Humidity Pressure Visibility Wind Dir Wind Speed Gust Speed Precip Events Conditions
12:50 AM 39.2 °F 29.3 °F 35.6 °F 87% 29.49 in 10.0 mi South 20.7 mph 29.9 mph N/A Rain Light Rain
12:55 AM 40.3 °F 30.4 °F 35.8 °F 84% 29.49 in 10.0 mi South 21.9 mph 32.2 mph 0.00 in Rain Light Rain
1:20 AM 41.0 °F 31.1 °F 33.8 °F 76% 29.49 in 10.0 mi South 23.0 mph 33.4 mph N/A   Mostly Cloudy
1:55 AM 39.6 °F 31.3 °F 35.2 °F 85% 29.50 in 10.0 mi SSE 15.0 mph 23.0 mph N/A   Mostly Cloudy
2:55 AM 39.4 °F 31.4 °F 33.6 °F 80% 29.52 in 10.0 mi SSE 13.8 mph 23.0 mph N/A   Partly Cloudy
3:55 AM 38.8 °F 28.8 °F 31.5 °F 75% 29.52 in 10.0 mi SSE 20.7 mph 33.4 mph N/A   Clear
4:55 AM 39.6 °F 29.5 °F 31.8 °F 74% 29.53 in 10.0 mi SSE 21.9 mph 34.5 mph N/A   Clear
5:55 AM 39.2 °F 28.3 °F 31.1 °F 73% 29.55 in 10.0 mi SE 25.3 mph 34.5 mph N/A   Partly Cloudy
6:25 AM 39.2 °F 30.8 °F 30.2 °F 70% 29.55 in 10.0 mi SE 15.0 mph 26.5 mph N/A   Clear
6:55 AM 39.2 °F 30.5 °F 30.2 °F 70% 29.55 in 10.0 mi SSE 16.1 mph 29.9 mph N/A   Clear
7:10 AM 39.2 °F 29.0 °F 30.2 °F 70% 29.55 in 10.0 mi SSE 21.9 mph 31.1 mph N/A   Clear
7:55 AM 37.8 °F 28.3 °F 29.7 °F 73% 29.56 in 10.0 mi SE 17.3 mph 31.1 mph N/A   Clear
8:55 AM 37.8 °F 29.0 °F 30.0 °F 74% 29.59 in 10.0 mi SE 15.0 mph 27.6 mph N/A   Clear
9:35 AM 37.4 °F 27.8 °F 30.2 °F 75% 29.59 in 10.0 mi SE 17.3 mph 28.8 mph N/A   Clear
9:55 AM 37.2 °F 29.6 °F 29.7 °F 74% 29.60 in 10.0 mi ESE 11.5 mph 25.3 mph N/A   Clear
10:55 AM 37.4 °F 27.5 °F 29.5 °F 73% 29.61 in 10.0 mi SE 18.4 mph 31.1 mph N/A   Clear
11:55 AM 37.4 °F 28.5 °F 29.3 °F 73% 29.62 in 10.0 mi SE 15.0 mph 26.5 mph N/A   Clear
12:55 PM 38.5 °F 29.6 °F 29.3 °F 70% 29.62 in 10.0 mi SE 16.1 mph 26.5 mph N/A   Clear
1:55 PM 37.6 °F 26.6 °F 29.7 °F 73% 29.61 in 10.0 mi ESE 23.0 mph 32.2 mph N/A   Clear
2:55 PM 37.9 °F 28.9 °F 30.0 °F 73% 29.61 in 10.0 mi East 16.1 mph 25.3 mph N/A   Clear
3:55 PM 38.3 °F 28.1 °F 29.5 °F 71% 29.60 in 10.0 mi East 20.7 mph 29.9 mph N/A   Partly Cloudy
4:55 PM 38.3 °F 28.4 °F 30.0 °F 72% 29.60 in 10.0 mi ESE 19.6 mph 27.6 mph N/A   Scattered Clouds
5:55 PM 38.7 °F 28.8 °F 30.4 °F 72% 29.61 in 10.0 mi ESE 19.6 mph 32.2 mph N/A   Mostly Cloudy
6:55 PM 38.5 °F 28.6 °F 30.2 °F 72% 29.61 in 10.0 mi ESE 19.6 mph 27.6 mph N/A   Overcast
7:55 PM 38.8 °F 29.7 °F 30.0 °F 71% 29.62 in 10.0 mi ESE 17.3 mph 27.6 mph N/A   Mostly Cloudy
8:05 PM 39.2 °F 30.2 °F 30.2 °F 70% 29.62 in 10.0 mi ESE 17.3 mph 31.1 mph N/A Rain Light Rain
8:50 PM 37.4 °F 26.4 °F 32.0 °F 81% 29.62 in 10.0 mi SE 23.0 mph 31.1 mph N/A Rain Light Rain Showers
8:55 PM 37.4 °F 27.5 °F 32.0 °F 81% 29.62 in 10.0 mi ESE 18.4 mph 27.6 mph 0.00 in Rain Light Rain Showers
9:50 PM 37.4 °F 26.9 °F 32.0 °F 81% 29.62 in 10.0 mi SE 20.7 mph 32.2 mph N/A Rain Light Rain Showers
9:55 PM 37.6 °F 28.4 °F 31.3 °F 78% 29.62 in 10.0 mi ESE 16.1 mph 28.8 mph N/A Rain Light Rain Showers
10:55 PM 38.1 °F 29.5 °F 31.1 °F 76% 29.62 in 10.0 mi ESE 15.0 mph 33.4 mph N/A Rain Light Rain Showers
11:05 PM 37.4 °F 28.2 °F 30.2 °F 75% 29.62 in 10.0 mi ESE 16.1 mph 29.9 mph N/A   Overcast
11:55 PM 38.3 °F 27.8 °F 30.2 °F 73% 29.62 in 10.0 mi SE 21.9 mph 32.2 mph N/A   Overcast